This is the latest recevied weather packets stored in our database for station/object WD7OO. If no packets are shown the sender has not sent any weather packets the latest 10 day(s).
| Time | Temp. | Humidity | Pressure | Rain* | Wind** | Luminosity | Snow |
|---|---|---|---|---|---|---|---|
| 1778262029 | 17.22° C | 55% | 1010.4 hPa | 0 mm | - | 627 W/m² | - |
| 1778261726 | 16.67° C | 58% | 1010.5 hPa | 0 mm | - | 524 W/m² | - |
| 1778261422 | 17.22° C | 53% | 1010.7 hPa | 0 mm | - | 472 W/m² | - |
| 1778261119 | 17.22° C | 56% | 1010.9 hPa | 0 mm | - | 676 W/m² | - |
| 1778260815 | 16.67° C | 52% | 1011.2 hPa | 0 mm | - | 538 W/m² | - |
| 1778260512 | 17.22° C | 51% | 1011 hPa | 0 mm | - | 517 W/m² | - |
| 1778260209 | 17.22° C | 53% | 1011.1 hPa | 0 mm | - | 772 W/m² | - |
| 1778259906 | 16.67° C | 54% | 1011 hPa | 0 mm | - | 496 W/m² | - |
| 1778259603 | 16.67° C | 54% | 1011.2 hPa | 0 mm | - | 863 W/m² | - |
| 1778259301 | 17.22° C | 55% | 1011.1 hPa | 0 mm | - | 521 W/m² | - |
| 1778258996 | 16.67° C | 57% | 1011.2 hPa | 0 mm | - | 697 W/m² | - |
| 1778258694 | 16.67° C | 57% | 1011.3 hPa | 0 mm | - | 576 W/m² | - |
| 1778258390 | 16.67° C | 58% | 1011.4 hPa | 0 mm | - | 524 W/m² | - |
| 1778258088 | 16.11° C | 59% | 1011.5 hPa | 0 mm | - | 675 W/m² | - |
| 1778257784 | 16.11° C | 62% | 1011.5 hPa | 0 mm | - | 666 W/m² | - |
| 1778257482 | 15.56° C | 64% | 1011.8 hPa | 0 mm | - | 445 W/m² | - |
| 1778257178 | 15.56° C | 65% | 1011.6 hPa | 0 mm | - | 478 W/m² | - |
| 1778256875 | 15.56° C | 64% | 1011.7 hPa | 0 mm | - | 920 W/m² | - |
| 1778256572 | 15.56° C | 63% | 1011.8 hPa | 0 mm | - | 852 W/m² | - |
| 1778256272 | 15.56° C | 63% | 1012 hPa | 0 mm | - | 340 W/m² | - |
| 1778255967 | 15.56° C | 63% | 1011.8 hPa | 0 mm | - | 772 W/m² | - |
| 1778255665 | 15.56° C | 63% | 1011.8 hPa | 0 mm | - | 350 W/m² | - |
| 1778255361 | 15° C | 68% | 1011.7 hPa | 0 mm | - | 253 W/m² | - |
| 1778255059 | 15° C | 69% | 1011.8 hPa | 0 mm | - | 775 W/m² | - |
| 1778254755 | 15° C | 70% | 1011.8 hPa | 0 mm | - | 343 W/m² | - |
* Rain latest hour (hover to see other rain measurements)
** Current wind speed in m/s (hover to see current wind gust speed)